Waupaca, WI

10:16 AM CDT on August 22, 2017 (GMT -0500)
Waupaca Municipal

Weather History for KPCZ - November, 2011

Change the Weather History Date:

Wednesday, November 16, 2011

  Actual Average Record
Temperature  
Mean Temperature 34 °F -  
Max Temperature 37 °F 44 °F 72 °F (1953)
Min Temperature 30 °F 26 °F 7 °F (1959)
Degree Days  
Heating Degree Days 32    
Moisture  
Dew Point 18 °F    
Average Humidity 53    
Maximum Humidity 64    
Minimum Humidity 36    
Precipitation  
Precipitation 0.00 in - - ()
Sea Level Pressure  
Sea Level Pressure 29.95 in    
Wind  
Wind Speed 12 mph (West)    
Max Wind Speed 23 mph    
Max Gust Speed 30 mph    
Visibility 10 miles    
Events      
Averages and records for this station are not official NWS values.
T = Trace of Precipitation, MM = Missing Value Source: NWS Daily Summary

Daily Weather History Graph

Daily Weather History Graph

Search for Another Location

Airport or City:

Trip Planner

Search our weather history database for the weather conditions in past years. The results will help you decide how hot, cold, wet, or windy it might be!

Date:

Astronomy

Nov. 16, 2011 Rise Set
Actual Time 6:52 AM CST 4:28 PM CST
Civil Twilight 6:21 AM CST 4:59 PM CST
Nautical Twilight 5:46 AM CST 5:34 PM CST
Astronomical Twilight 5:11 AM CST 6:09 PM CST
Moon 9:44 PM CST (11/16) 11:27 AM CST (11/16)
Length of Visible Light 10h 38m
Length of Day
9h 35m
Waning Gibbous, 70% of the Moon is Illuminated
Nov 16
Waning Gibbous
Nov 18
Last Quarter
Nov 25
New
Dec 2
First Quarter
Dec 10
Full

Hourly Weather History & Observations

Time (CST) Temp. Windchill Dew Point Humidity Pressure Visibility Wind Dir Wind Speed Gust Speed Precip Events Conditions
12:15 AM 37.4 °F 30.3 °F 19.4 °F 48% 29.83 in 10.0 mi West 10.4 mph 18.4 mph N/A   Clear
12:35 AM 35.6 °F 27.5 °F 19.4 °F 52% 29.83 in 10.0 mi West 11.5 mph 18.4 mph N/A   Clear
12:55 AM 35.6 °F 28.0 °F 21.2 °F 56% 29.83 in 10.0 mi West 10.4 mph 16.1 mph N/A   Clear
1:15 AM 33.8 °F 24.3 °F 21.2 °F 60% 29.83 in 10.0 mi West 13.8 mph - N/A   Clear
1:35 AM 35.6 °F 26.6 °F 21.2 °F 56% 29.83 in 10.0 mi West 13.8 mph 20.7 mph N/A   Clear
1:55 AM 35.6 °F 25.5 °F 21.2 °F 56% 29.83 in 10.0 mi West 17.3 mph 26.5 mph N/A   Clear
2:15 AM 35.6 °F 27.1 °F 21.2 °F 56% 29.84 in 10.0 mi West 12.7 mph 19.6 mph N/A   Clear
2:35 AM 33.8 °F 26.4 °F 21.2 °F 60% 29.85 in 10.0 mi West 9.2 mph - N/A   Clear
2:55 AM 33.8 °F 25.3 °F 21.2 °F 60% 29.86 in 10.0 mi West 11.5 mph 18.4 mph N/A   Clear
3:15 AM 32.0 °F 22.1 °F 21.2 °F 64% 29.86 in 10.0 mi West 13.8 mph - N/A   Clear
3:35 AM 32.0 °F 23.6 °F 21.2 °F 64% 29.86 in 10.0 mi West 10.4 mph 16.1 mph N/A   Clear
3:55 AM 32.0 °F 24.2 °F 21.2 °F 64% 29.86 in 10.0 mi West 9.2 mph - N/A   Clear
4:15 AM 32.0 °F 24.2 °F 21.2 °F 64% 29.86 in 10.0 mi West 9.2 mph - N/A   Clear
4:35 AM 32.0 °F 23.6 °F 21.2 °F 64% 29.87 in 10.0 mi West 10.4 mph 17.3 mph N/A   Clear
4:55 AM 32.0 °F 23.6 °F 21.2 °F 64% 29.88 in 10.0 mi West 10.4 mph 18.4 mph N/A   Clear
5:15 AM 32.0 °F 23.0 °F 21.2 °F 64% 29.89 in 10.0 mi West 11.5 mph - N/A   Clear
5:35 AM 32.0 °F 23.0 °F 21.2 °F 64% 29.89 in 10.0 mi West 11.5 mph 16.1 mph N/A   Clear
5:55 AM 32.0 °F 22.1 °F 19.4 °F 60% 29.89 in 10.0 mi West 13.8 mph 19.6 mph N/A   Clear
6:15 AM 32.0 °F 22.1 °F 19.4 °F 60% 29.90 in 10.0 mi West 13.8 mph - N/A   Clear
6:35 AM 30.2 °F 20.8 °F 19.4 °F 64% 29.92 in 10.0 mi West 11.5 mph - N/A   Clear
6:55 AM 30.2 °F 19.8 °F 19.4 °F 64% 29.92 in 10.0 mi West 13.8 mph 20.7 mph N/A   Clear
7:15 AM 32.0 °F 22.5 °F 19.4 °F 60% 29.93 in 10.0 mi West 12.7 mph 20.7 mph N/A   Scattered Clouds
7:55 AM 32.0 °F 21.6 °F 19.4 °F 60% 29.95 in 10.0 mi West 15.0 mph 23.0 mph N/A   Overcast
8:15 AM 32.0 °F 24.8 °F 19.4 °F 60% 29.95 in 10.0 mi West 8.1 mph 24.2 mph N/A   Mostly Cloudy
8:35 AM 32.0 °F 23.6 °F 19.4 °F 60% 29.96 in 10.0 mi WNW 10.4 mph 19.6 mph N/A   Scattered Clouds
8:55 AM 32.0 °F 23.6 °F 17.6 °F 55% 29.97 in 10.0 mi WNW 10.4 mph 23.0 mph N/A   Mostly Cloudy
9:15 AM 32.0 °F 22.5 °F 17.6 °F 55% 29.98 in 10.0 mi West 12.7 mph 24.2 mph N/A   Mostly Cloudy
9:35 AM 32.0 °F 20.5 °F 17.6 °F 55% 29.98 in 10.0 mi WNW 18.4 mph 27.6 mph N/A   Overcast
9:55 AM 33.8 °F 25.3 °F 17.6 °F 52% 29.99 in 10.0 mi West 11.5 mph 25.3 mph N/A   Overcast
10:15 AM 33.8 °F 23.9 °F 19.4 °F 56% 29.99 in 10.0 mi WNW 15.0 mph 27.6 mph N/A   Mostly Cloudy
10:35 AM 35.6 °F 25.5 °F 17.6 °F 48% 30.00 in 10.0 mi WNW 17.3 mph 26.5 mph N/A   Scattered Clouds
10:55 AM 35.6 °F 25.5 °F 17.6 °F 48% 30.00 in 10.0 mi WNW 17.3 mph 26.5 mph N/A   Clear
11:15 AM 35.6 °F 25.9 °F 17.6 °F 48% 30.00 in 10.0 mi West 16.1 mph 24.2 mph N/A   Clear
11:35 AM 35.6 °F 26.6 °F 17.6 °F 48% 30.00 in 10.0 mi West 13.8 mph 24.2 mph N/A   Clear
11:55 AM 37.4 °F 27.5 °F 17.6 °F 45% 30.00 in 10.0 mi West 18.4 mph 25.3 mph N/A   Clear
12:15 PM 37.4 °F 28.5 °F 14.0 °F 38% 30.00 in 10.0 mi West 15.0 mph 25.3 mph N/A   Clear
12:35 PM 37.4 °F 27.2 °F 12.2 °F 36% 29.99 in 10.0 mi West 19.6 mph 25.3 mph N/A   Clear
12:55 PM 37.4 °F 27.5 °F 14.0 °F 38% 30.00 in 10.0 mi West 18.4 mph 26.5 mph N/A   Clear
1:15 PM 37.4 °F 27.5 °F 14.0 °F 38% 30.00 in 10.0 mi West 18.4 mph 24.2 mph N/A   Clear
1:35 PM 37.4 °F 26.4 °F 14.0 °F 38% 30.00 in 10.0 mi WSW 23.0 mph 27.6 mph N/A   Clear
1:55 PM 37.4 °F 28.5 °F 12.2 °F 36% 30.00 in 10.0 mi West 15.0 mph 25.3 mph N/A   Clear
2:15 PM 37.4 °F 27.8 °F 12.2 °F 36% 30.00 in 10.0 mi West 17.3 mph 21.9 mph N/A   Clear
2:35 PM 37.4 °F 27.2 °F 14.0 °F 38% 30.00 in 10.0 mi West 19.6 mph 24.2 mph N/A   Clear
2:55 PM 37.4 °F 27.2 °F 14.0 °F 38% 30.01 in 10.0 mi West 19.6 mph 29.9 mph N/A   Scattered Clouds
3:15 PM 37.4 °F 27.8 °F 14.0 °F 38% 30.01 in 10.0 mi West 17.3 mph 23.0 mph N/A   Mostly Cloudy
3:35 PM 37.4 °F 27.5 °F 14.0 °F 38% 30.02 in 10.0 mi WSW 18.4 mph 25.3 mph N/A   Mostly Cloudy
3:55 PM 35.6 °F 27.5 °F 15.8 °F 44% 30.02 in 10.0 mi West 11.5 mph 20.7 mph N/A   Mostly Cloudy
4:15 PM 35.6 °F 28.0 °F 15.8 °F 44% 30.02 in 10.0 mi West 10.4 mph - N/A   Scattered Clouds
4:35 PM 33.8 °F 25.3 °F 17.6 °F 52% 30.03 in 10.0 mi West 11.5 mph - N/A   Mostly Cloudy
4:55 PM 33.8 °F 25.8 °F 17.6 °F 52% 30.03 in 10.0 mi West 10.4 mph - N/A   Mostly Cloudy
5:15 PM 33.8 °F 27.0 °F 17.6 °F 52% 30.03 in 10.0 mi WSW 8.1 mph - N/A   Scattered Clouds
5:35 PM 32.0 °F 26.4 °F 17.6 °F 55% 30.03 in 10.0 mi SW 5.8 mph - N/A   Mostly Cloudy
6:15 PM 32.0 °F 28.7 °F 17.6 °F 55% 30.04 in 10.0 mi SW 3.5 mph - N/A   Mostly Cloudy
6:35 PM 32.0 °F 28.7 °F 19.4 °F 60% 30.03 in 10.0 mi SSW 3.5 mph - N/A   Overcast
6:55 PM 32.0 °F - 17.6 °F 55% 30.03 in 10.0 mi Calm Calm - N/A   Overcast
7:15 PM 32.0 °F 27.5 °F 19.4 °F 60% 30.03 in 10.0 mi NW 4.6 mph - N/A   Overcast
7:35 PM 32.0 °F 26.4 °F 17.6 °F 55% 30.04 in 10.0 mi West 5.8 mph - N/A   Mostly Cloudy
7:55 PM 30.2 °F 23.4 °F 19.4 °F 64% 30.04 in 10.0 mi WSW 6.9 mph - N/A   Scattered Clouds
8:15 PM 32.0 °F 25.6 °F 17.6 °F 55% 30.03 in 10.0 mi West 6.9 mph - N/A   Scattered Clouds
8:35 PM 30.2 °F 23.4 °F 17.6 °F 60% 30.03 in 10.0 mi West 6.9 mph - N/A   Clear
8:55 PM 32.0 °F 25.6 °F 17.6 °F 55% 30.03 in 10.0 mi West 6.9 mph - N/A   Clear
9:15 PM 32.0 °F 26.4 °F 17.6 °F 55% 30.03 in 10.0 mi West 5.8 mph - N/A   Clear
9:35 PM 32.0 °F 25.6 °F 17.6 °F 55% 30.03 in 10.0 mi West 6.9 mph - N/A   Clear
9:55 PM 32.0 °F 25.6 °F 17.6 °F 55% 30.03 in 10.0 mi West 6.9 mph - N/A   Clear
10:15 PM 32.0 °F 24.8 °F 17.6 °F 55% 30.03 in 10.0 mi WNW 8.1 mph - N/A   Clear
10:55 PM 30.2 °F 21.9 °F 14.0 °F 51% 30.03 in 10.0 mi West 9.2 mph - N/A   Clear
11:15 PM 30.2 °F 22.6 °F 14.0 °F 51% 30.03 in 10.0 mi West 8.1 mph - N/A   Clear
11:35 PM 30.2 °F 21.9 °F 14.0 °F 51% 30.04 in 10.0 mi West 9.2 mph - N/A   Clear
11:55 PM 30.2 °F 22.6 °F 14.0 °F 51% 30.04 in 10.0 mi West 8.1 mph - N/A   Clear